TimeMDT,TemperatureF,Dew PointF,Humidity,Sea Level PressureIn,VisibilityMPH,Wind Direction,Wind SpeedMPH,Gust SpeedMPH,PrecipitationIn,Events,Conditions,WindDirDegrees,DateUTC
12:53 AM,57.9,55.9,93,29.99,8.0,South,19.6,-,N/A,,Overcast,180,2013-09-17 06:53:00
1:53 AM,59.0,57.0,93,29.96,8.0,South,15.0,-,N/A,,Overcast,180,2013-09-17 07:53:00
2:53 AM,61.0,57.9,90,29.94,10.0,SSW,17.3,25.3,N/A,,Overcast,200,2013-09-17 08:53:00
3:50 AM,59.0,57.2,94,30.02,10.0,South,11.5,-,N/A,,Scattered Clouds,190,2013-09-17 09:50:00
3:53 AM,59.0,57.0,93,29.92,10.0,South,10.4,-,N/A,,Partly Cloudy,190,2013-09-17 09:53:00
4:53 AM,57.9,55.9,93,29.92,9.0,SSW,10.4,-,N/A,,Clear,200,2013-09-17 10:53:00
5:40 AM,57.2,55.4,94,30.01,8.0,SW,10.4,-,N/A,,Partly Cloudy,230,2013-09-17 11:40:00
5:48 AM,57.2,55.4,94,30.01,5.0,SW,10.4,-,N/A,,Mostly Cloudy,220,2013-09-17 11:48:00
5:53 AM,57.0,55.9,96,29.92,4.0,SW,10.4,-,N/A,,Mostly Cloudy,230,2013-09-17 11:53:00
6:10 AM,57.2,55.4,94,30.00,7.0,SW,10.4,-,N/A,,Scattered Clouds,230,2013-09-17 12:10:00
6:53 AM,55.9,55.0,97,29.93,6.0,SW,8.1,-,N/A,,Clear,230,2013-09-17 12:53:00
7:47 AM,57.2,55.4,94,30.01,2.5,West,8.1,-,N/A,,Partly Cloudy,260,2013-09-17 13:47:00
7:49 AM,57.2,55.4,94,30.01,1.0,West,8.1,-,N/A,,Mist,260,2013-09-17 13:49:00
7:53 AM,57.0,55.0,93,29.92,0.5,WSW,6.9,-,N/A,Fog,Fog,250,2013-09-17 13:53:00
8:11 AM,57.2,55.4,94,30.01,1.2,WSW,8.1,-,N/A,,Mostly Cloudy,250,2013-09-17 14:11:00
8:15 AM,57.2,57.2,100,30.00,3.0,West,6.9,-,N/A,,Mostly Cloudy,260,2013-09-17 14:15:00
8:26 AM,60.8,57.2,88,30.00,9.0,WSW,9.2,-,N/A,,Scattered Clouds,250,2013-09-17 14:26:00
8:53 AM,66.0,59.0,78,29.90,10.0,WSW,8.1,-,N/A,,Clear,240,2013-09-17 14:53:00
9:53 AM,77.0,55.0,47,29.87,10.0,West,10.4,-,N/A,,Clear,270,2013-09-17 15:53:00
10:53 AM,81.0,51.1,35,29.85,10.0,West,11.5,-,N/A,,Clear,280,2013-09-17 16:53:00
11:53 AM,82.9,51.1,33,29.83,10.0,West,9.2,-,N/A,,Clear,280,2013-09-17 17:53:00
12:53 PM,84.0,51.1,32,29.80,10.0,Variable,4.6,-,N/A,,Clear,0,2013-09-17 18:53:00
1:53 PM,86.0,46.9,26,29.77,10.0,SW,8.1,16.1,N/A,,Clear,220,2013-09-17 19:53:00
2:53 PM,88.0,46.9,24,29.73,10.0,Variable,6.9,17.3,N/A,,Clear,0,2013-09-17 20:53:00
3:53 PM,87.1,48.9,27,29.72,10.0,South,11.5,-,N/A,,Clear,190,2013-09-17 21:53:00
4:53 PM,86.0,46.9,26,29.73,10.0,South,9.2,17.3,N/A,,Clear,190,2013-09-17 22:53:00
5:53 PM,84.0,46.9,27,29.72,10.0,SSW,8.1,-,N/A,,Clear,200,2013-09-17 23:53:00
6:53 PM,73.0,53.1,49,29.74,10.0,South,8.1,-,N/A,,Clear,180,2013-09-18 00:53:00
7:53 PM,69.1,53.1,57,29.75,10.0,South,9.2,-,N/A,,Clear,170,2013-09-18 01:53:00
8:53 PM,66.0,53.1,63,29.74,10.0,South,8.1,-,N/A,,Clear,180,2013-09-18 02:53:00
9:53 PM,66.9,54.0,63,29.71,10.0,South,9.2,-,N/A,,Clear,170,2013-09-18 03:53:00
10:53 PM,64.0,55.9,75,29.70,10.0,South,9.2,-,N/A,,Clear,170,2013-09-18 04:53:00
11:53 PM,62.1,55.9,80,29.68,10.0,South,8.1,-,N/A,,Clear,180,2013-09-18 05:53:00